Overview Statistics Trail Chart Weather Telemetry Raw packets
 

This is the latest recevied weather packets stored in our database for station/object HS3MXC-2. If no packets are shown the sender has not sent any weather packets the latest 10 day(s).

<< 28 29 30 31 32 33 34 >>
Time Temp. Humidity Pressure Rain* Wind** Luminosity Snow
1777463225 31.11° C 58% 993.6 hPa - - - -
1777462915 31.11° C 58% 993.6 hPa - - - -
1777462296 31.11° C 57% 993.4 hPa - - - -
1777461986 31.11° C 57% 993.4 hPa - - - -
1777461368 31.11° C 57% 993.5 hPa - - - -
1777461061 31.11° C 56% 993.5 hPa - - - -
1777460754 31.11° C 56% 993.4 hPa - - - -
1777460444 31.11° C 57% 993.3 hPa - - - -
1777460137 31.11° C 57% 993.3 hPa - - - -
1777459828 31.11° C 58% 993.2 hPa - - - -
1777459521 31.11° C 59% 993.1 hPa - - - -
1777459214 31.11° C 58% 993.1 hPa - - - -
1777458907 31.11° C 59% 993.2 hPa - - - -
1777458600 31.11° C 58% 993.1 hPa - - - -
1777458293 31.11° C 58% 992.9 hPa - - - -
1777457986 31.11° C 57% 992.8 hPa - - - -
1777457679 31.11° C 58% 992.7 hPa - - - -
1777457372 31.11° C 58% 992.8 hPa - - - -
1777456445 30.56° C 59% 992.5 hPa - - - -
1777456137 30° C 58% 992.4 hPa - - - -
1777455828 28.33° C 63% 992.4 hPa - - - -
1777455521 24.44° C 42% 992.3 hPa - - - -
1777454594 25° C 43% 992.4 hPa - - - -
1777454287 25.56° C 44% 992.4 hPa - - - -
1777453980 25.56° C 42% 992.4 hPa - - - -

* Rain since midnight (hover to see other rain measurements)
** Current wind speed in m/s (hover to see current wind gust speed)